Location: Putah Creek Observatory
(38.7021°N, 122.3865°W)
Time: 09:02:37
(UTC-07:00)

ISS - Pass Details

Date: 21 March 2019
Orbit: 408 x 410 km, 51.6° (Epoch: 22 April)

Event Time Altitude Azimuth Distance (km) Brightness Sun altitude
Rises 21:37:55 0° 258° (WSW) 2,328 0.8 -26.5°
Reaches altitude 10° 21:40:12 10° 271° (W) 1,469 -0.2 -26.9°
Enters shadow 21:42:00 22° 299° (WNW) 945 -1.3 -27.2°
